time_stamp(utc),avg(mph),gust(mph),direction(deg),12m_air_temp(f),sonic_u(cm/s),sonic_v(cm/s),sonic_w(cm/s),pressure,2m_air_temp(f),pyranometer(W/m^2)
"2018-08-08 00:02:07+00",13.7,16.7,,78.9,-348,-505,-2,1013.43,78.8,0
"2018-08-08 00:07:07+00",14.6,16.6,,78.7,-326,-552,-11,1013.38,78.7,0
"2018-08-08 00:12:07+00",13.7,14.7,,78.6,-274,-532,-1,1013.19,78.5,0
"2018-08-08 00:17:07+00",15.1,18.1,,78.6,-313,-585,-5,1013.13,78.5,0
"2018-08-08 00:22:07+00",13.6,17.6,,78.6,-313,-551,-24,1013.06,78.4,0
"2018-08-08 00:27:07+00",14.2,17.2,,78.5,-245,-572,-29,1013.09,78.4,0
"2018-08-08 00:32:07+00",14.3,16.3,,78.6,-295,-559,5,1013.19,78.4,0
"2018-08-08 00:37:07+00",12.7,14.7,,78.6,-237,-505,-22,1013.31,78.4,0
"2018-08-08 00:42:07+00",15.3,18.3,,78.6,-303,-597,-61,1013.36,78.4,0
"2018-08-08 00:47:07+00",12.2,15.2,,78.5,-318,-470,-37,1013.52,78.4,0
"2018-08-08 00:52:07+00",12.7,14.7,,78.4,-379,-478,-54,1013.64,78.3,0
"2018-08-08 00:57:07+00",12.6,14.6,,78.4,-369,-465,-41,1013.71,78.3,0
"2018-08-08 01:02:07+00",10.7,12.7,,78.5,-354,-409,-34,1013.75,78.3,0
"2018-08-08 01:07:07+00",12.2,16.2,,78.5,-382,-467,-27,1013.71,78.3,0
"2018-08-08 01:12:07+00",14.0,16.0,,78.6,-460,-521,-41,1013.7,78.4,0
"2018-08-08 01:17:07+00",15.3,18.3,,78.7,-536,-571,-36,1013.7,78.5,0
"2018-08-08 01:22:07+00",14.2,16.2,,78.8,-488,-505,-27,1013.78,78.5,0
"2018-08-08 01:27:07+00",12.5,17.5,,78.7,-390,-463,-26,1013.79,78.6,0
"2018-08-08 01:32:07+00",13.3,17.3,,78.7,-406,-496,-26,1013.82,78.6,0
"2018-08-08 01:37:07+00",13.7,15.7,,78.8,-435,-507,-14,1013.85,78.7,0
"2018-08-08 01:42:07+00",13.3,15.3,,78.9,-383,-549,-55,1013.81,78.7,0
"2018-08-08 01:47:07+00",13.8,18.8,,78.9,-426,-556,-71,1013.88,78.7,0
"2018-08-08 01:52:07+00",11.6,14.6,,78.9,-332,-473,-35,1013.95,78.7,0
"2018-08-08 01:57:07+00",12.6,14.6,,78.9,-418,-446,-32,1013.97,78.7,0
"2018-08-08 02:02:07+00",12.2,14.2,,78.9,-373,-453,-53,1013.92,78.7,0
"2018-08-08 02:07:07+00",11.1,14.1,,78.8,-347,-385,-27,1013.98,78.7,0
"2018-08-08 02:12:07+00",11.1,15.1,,78.8,-365,-344,-40,1014.13,78.7,0
"2018-08-08 02:17:07+00",11.0,15.0,,78.7,-347,-395,-34,1014,78.6,0
"2018-08-08 02:22:07+00",11.8,14.8,,78.6,-372,-430,-51,1013.9,78.5,0
"2018-08-08 02:27:07+00",10.3,13.3,,78.5,-332,-322,-46,1013.93,78.4,0
"2018-08-08 02:32:07+00",8.8,12.8,,78.4,-252,-389,-65,1013.88,78.3,0
"2018-08-08 02:37:07+00",8.6,12.6,,78.3,-288,-345,-61,1013.92,78.3,0
"2018-08-08 02:42:07+00",13.3,15.3,,78.3,-439,-393,-38,1014.06,78.3,0
"2018-08-08 02:47:07+00",11.3,13.3,,78.4,-352,-314,-34,1014.07,78.3,0
"2018-08-08 02:52:07+00",12.2,14.2,,78.3,-428,-285,-54,1014.08,78.3,0
"2018-08-08 02:57:07+00",15.4,17.4,,78.3,-513,-428,-44,1014.05,78.2,0
"2018-08-08 03:02:07+00",13.7,15.7,,78.3,-472,-353,-29,1014,78.3,0
"2018-08-08 03:07:07+00",14.3,17.3,,78.3,-496,-363,-36,1013.94,78.2,0
"2018-08-08 03:12:07+00",11.8,13.8,,78.3,-403,-308,-8,1013.91,78.3,0
"2018-08-08 03:17:07+00",12.3,13.3,,78.3,-413,-350,-12,1013.94,78.2,0
"2018-08-08 03:22:07+00",11.2,13.2,,78.3,-359,-305,-40,1013.93,78.3,0
"2018-08-08 03:27:07+00",10.4,13.4,,78.4,-344,-270,-40,1013.93,78.3,0
"2018-08-08 03:32:07+00",9.7,11.7,,78.5,-312,-272,-44,1013.89,78.4,0
"2018-08-08 03:37:07+00",9.0,13.0,,78.4,-281,-278,-78,1013.95,78.4,0
"2018-08-08 03:42:07+00",8.6,11.6,,78.4,-282,-289,-42,1013.85,78.4,0
"2018-08-08 03:47:07+00",10.7,11.7,,78.5,-343,-345,-41,1013.79,78.3,0
"2018-08-08 03:52:07+00",10.1,12.1,,78.4,-330,-323,-41,1013.77,78.3,0
"2018-08-08 03:57:07+00",12.7,14.7,,78.3,-406,-308,-81,1013.66,78.3,0
"2018-08-08 04:02:07+00",11.6,12.6,,78.2,-411,-277,-40,1013.58,78.2,0
"2018-08-08 04:07:07+00",11.5,13.5,,78.2,-423,-278,-26,1013.54,78.2,0
"2018-08-08 04:12:07+00",13.9,15.9,,78.2,-517,-336,-27,1013.53,78.2,0
"2018-08-08 04:17:07+00",14.7,17.7,,78.3,-581,-346,-48,1013.62,78.2,0
"2018-08-08 04:22:07+00",14.0,16.0,,78.5,-576,-306,-53,1013.69,78.3,0
"2018-08-08 04:27:07+00",12.1,14.1,,78.5,-501,-280,-32,1013.72,78.4,0
"2018-08-08 04:32:07+00",11.5,13.5,,78.7,-483,-175,-23,1013.91,78.5,0
"2018-08-08 04:37:07+00",15.0,17.0,,78.9,-627,-158,-20,1013.96,78.6,0
"2018-08-08 04:42:07+00",16.7,19.7,,78.9,-734,-99,19,1013.99,78.7,0
"2018-08-08 04:47:07+00",18.7,21.7,,78,-833,-79,26,1013.82,77.8,0
"2018-08-08 04:52:07+00",17.6,19.6,,77.6,-775,-116,-13,1013.76,77.5,0
"2018-08-08 04:57:07+00",14.7,16.7,,77.3,-648,-267,-37,1013.79,77.2,0
"2018-08-08 05:02:07+00",9.6,11.6,,76.7,-357,-213,-33,1013.74,77,0
"2018-08-08 05:07:07+00",14.6,16.6,,77.2,-604,-193,-24,1013.69,76.7,0
"2018-08-08 05:12:07+00",14.7,16.7,,76.9,-638,-273,-30,1013.69,76.6,0
"2018-08-08 05:17:07+00",12.7,14.7,,76.4,-527,-223,-58,1013.59,76.3,0
"2018-08-08 05:22:07+00",11.6,14.6,,76.1,-498,-228,-17,1013.39,76.1,0
"2018-08-08 05:27:07+00",15.5,18.5,,76.8,-516,-427,-49,1013.2,76.2,0
"2018-08-08 05:32:07+00",14.2,16.2,,77.5,-500,-362,-35,1012.98,76.3,0
"2018-08-08 05:37:07+00",12.1,14.1,,77.9,-348,-447,-57,1012.72,76.7,0
"2018-08-08 05:42:07+00",11.5,13.5,,77.1,-347,-435,-75,1012.57,76.6,0
"2018-08-08 05:47:07+00",12.1,14.1,,77,-381,-361,-57,1012.55,76.5,0
"2018-08-08 05:52:07+00",8.8,9.8,,77,-362,-69,-27,1012.53,76.6,0
"2018-08-08 05:57:07+00",6.4,8.4,,77,-199,-230,-27,1012.53,76.6,0
"2018-08-08 06:02:07+00",6.8,8.8,,76.6,-185,-270,-52,1012.38,76.5,0
"2018-08-08 06:07:07+00",6.9,8.9,,76.7,-123,-309,-59,1012.23,76.3,0
"2018-08-08 06:12:07+00",8.9,9.9,,77,-240,-407,-79,1012.11,76.3,0
"2018-08-08 06:17:07+00",8.1,9.1,,77,-229,-408,-61,1012.08,76.3,0
"2018-08-08 06:22:07+00",8.5,9.5,,77.1,-242,-398,-74,1012.18,76.4,0
"2018-08-08 06:27:07+00",8.1,9.1,,77.2,-237,-369,-49,1012.24,76.4,0
"2018-08-08 06:32:07+00",8.6,9.6,,77.3,-238,-388,-52,1012.21,76.4,0
"2018-08-08 06:37:07+00",8.9,9.9,,77.5,-288,-348,-67,1012.25,76.5,0
"2018-08-08 06:42:07+00",8.5,9.5,,77.4,-248,-401,-69,1012.22,76.5,0
"2018-08-08 06:47:07+00",7.7,8.7,,77.2,-169,-350,-67,1012.24,76.4,0
"2018-08-08 06:52:07+00",6.7,7.7,,77.2,-190,-275,-63,1012.35,76.4,0
"2018-08-08 06:57:07+00",5.3,6.3,,77.1,-118,-221,-48,1012.42,76.3,0
"2018-08-08 07:02:07+00",5.5,6.5,,76.9,-96,-241,-49,1012.4,76.2,0
"2018-08-08 07:07:07+00",4.8,5.8,,76.7,-197,42,-1,1012.47,76.2,0
"2018-08-08 07:12:07+00",5.0,6.0,,76.9,-139,-207,-32,1012.4,76.1,0
"2018-08-08 07:17:07+00",4.7,5.7,,76.7,32,-195,-44,1012.49,76.1,0
"2018-08-08 07:22:07+00",2.6,3.6,,76.5,47,-80,-2,1012.48,76,0
"2018-08-08 07:27:07+00",0.8,1.8,,76.3,45,-31,-1,1012.56,75.9,0
"2018-08-08 07:32:07+00",0.0,0.0,,76.2,-4,22,2,1012.46,75.7,0
"2018-08-08 07:37:07+00",0.0,0.0,,76.1,-40,13,2,1012.47,75.6,0
"2018-08-08 07:42:07+00",2.4,2.4,,76.2,-94,-63,-3,1012.48,75.5,0
"2018-08-08 07:47:07+00",1.8,2.8,,76.3,-28,11,5,1012.45,75.5,0
"2018-08-08 07:52:07+00",1.9,2.9,,76.3,-23,-4,-3,1012.55,75.4,0
"2018-08-08 07:57:07+00",1.1,2.1,,76.3,-47,-3,12,1012.58,75.3,0
"2018-08-08 08:02:07+00",2.2,3.2,,76.3,-31,1,3,1012.57,75.3,0
"2018-08-08 08:07:07+00",1.5,2.5,,76.2,-27,35,-2,1012.51,75.2,0
"2018-08-08 08:12:07+00",2.9,2.9,,76.1,-28,6,-7,1012.43,75.1,0
"2018-08-08 08:17:07+00",4.5,5.5,,75.9,-77,39,-6,1012.46,75.2,0
"2018-08-08 08:22:07+00",5.6,6.6,,75.9,-71,25,-13,1012.48,75.1,0
"2018-08-08 08:27:07+00",5.2,5.2,,75.9,-64,-5,-7,1012.47,75.1,0
"2018-08-08 08:32:07+00",5.1,6.1,,75.8,-37,6,-10,1012.43,75,0
"2018-08-08 08:37:07+00",4.9,4.9,,75.8,-140,-21,-4,1012.4,74.9,0
"2018-08-08 08:42:07+00",5.5,6.5,,75.7,-72,-16,-16,1012.35,74.7,0
"2018-08-08 08:47:07+00",5.6,6.6,,75.5,-240,-15,-11,1012.39,74.6,0
"2018-08-08 08:52:07+00",5.2,5.2,,75.4,-192,-59,-31,1012.43,74.5,0
"2018-08-08 08:57:07+00",5.7,5.7,,75.6,-217,-41,-34,1012.43,74.5,0
"2018-08-08 09:02:07+00",5.7,5.7,,75.8,-215,-65,-33,1012.49,74.4,0
"2018-08-08 09:07:07+00",4.7,5.7,,75.5,-179,58,-20,1012.55,74.3,0
"2018-08-08 09:12:07+00",5.2,5.2,,75.2,-145,151,-15,1012.44,74.2,0
"2018-08-08 09:17:07+00",4.9,4.9,,75.1,-145,127,-14,1012.64,74.2,0
"2018-08-08 09:22:07+00",5.9,6.9,,75,-191,147,-22,1012.67,74.1,0
"2018-08-08 09:27:07+00",6.4,7.4,,74.6,-205,155,-23,1012.73,74,0
"2018-08-08 09:32:07+00",5.9,5.9,,74.3,-201,114,-27,1012.82,73.9,0
"2018-08-08 09:37:07+00",5.5,5.5,,74.2,-213,71,-24,1012.89,73.8,0
"2018-08-08 09:42:07+00",4.7,4.7,,74.1,-186,35,-23,1012.89,73.7,0
"2018-08-08 09:47:07+00",4.4,4.4,,74,-178,-2,-22,1012.97,73.6,0
"2018-08-08 09:52:07+00",5.1,6.1,,74.2,-204,-37,-31,1012.99,73.5,0
"2018-08-08 09:57:07+00",4.7,4.7,,74.4,-203,22,9,1013.02,73.5,0
"2018-08-08 10:02:07+00",5.0,5.0,,74.6,-207,82,12,1012.97,73.3,0
"2018-08-08 10:07:07+00",4.9,4.9,,74.7,-201,97,15,1013.03,73.2,0
"2018-08-08 10:12:07+00",4.9,4.9,,74.6,-217,46,19,1012.97,73.3,0
"2018-08-08 10:17:07+00",4.8,4.8,,74.4,-202,77,13,1013.02,73.3,0
"2018-08-08 10:22:07+00",5.0,6.0,,74.1,-181,129,15,1013.01,73.2,0
"2018-08-08 10:27:07+00",4.2,5.2,,73.6,-163,96,9,1013.09,73.3,0
"2018-08-08 10:32:07+00",4.2,5.2,,73.4,-148,118,7,1013.06,73.3,0
"2018-08-08 10:37:07+00",4.6,5.6,,73.4,-149,135,16,1013.11,73.3,0
"2018-08-08 10:42:07+00",5.1,6.1,,73.5,-186,130,15,1013.27,73.3,0
"2018-08-08 10:47:07+00",5.7,6.7,,73.5,-204,150,18,1013.23,73.3,0
"2018-08-08 10:52:07+00",5.3,6.3,,73.6,-156,170,15,1013.26,73.4,0
"2018-08-08 10:57:07+00",4.2,5.2,,73.7,-100,155,10,1013.37,73.6,19.7
"2018-08-08 11:02:07+00",1.3,2.3,,73.9,9,66,3,1013.35,74,24.9
"2018-08-08 11:07:07+00",0.0,0.0,,74.4,79,-9,7,1013.4,74.7,34.5
"2018-08-08 11:12:07+00",0.0,0.0,,74.8,-9,31,-3,1013.4,75.4,42.2
"2018-08-08 11:17:07+00",1.6,1.6,,74.8,-76,40,7,1013.36,76,51.1
"2018-08-08 11:22:07+00",3.4,3.4,,74.7,-122,92,5,1013.29,76.6,58.9
"2018-08-08 11:27:07+00",2.9,2.9,,74.7,-119,54,0,1013.26,77.1,70.7
"2018-08-08 11:32:07+00",2.3,3.3,,74.7,-104,41,1,1013.14,77.8,76.9
"2018-08-08 11:37:07+00",2.7,3.7,,74.7,-100,78,12,1013.05,78.3,83.5
"2018-08-08 11:42:07+00",2.6,3.6,,74.8,-95,62,16,1013.07,78.9,95.6
"2018-08-08 11:47:07+00",2.9,2.9,,74.9,-105,61,41,1013.06,79.2,88.8
"2018-08-08 11:52:07+00",2.7,3.7,,74.9,-120,27,24,1013.02,79.6,95
"2018-08-08 11:57:07+00",3.4,4.4,,75.1,-114,96,9,1012.98,80,75.1
"2018-08-08 12:02:07+00",3.7,4.7,,75.1,-133,92,8,1012.98,79.8,136
"2018-08-08 12:07:07+00",4.0,5.0,,75.3,-176,28,9,1012.99,79.7,145.9
"2018-08-08 12:12:07+00",3.7,4.7,,75.4,-166,26,13,1012.93,80,153.5
"2018-08-08 12:17:07+00",3.0,4.0,,75.8,-131,-3,15,1013.01,80.4,159.7
"2018-08-08 12:22:07+00",4.2,5.2,,76.1,-184,34,41,1013.01,80.9,169.4
"2018-08-08 12:27:07+00",5.9,6.9,,76.3,-263,46,14,1013.1,81,177.2
"2018-08-08 12:32:07+00",5.5,6.5,,76.5,-237,51,18,1013.26,81.1,184.9
"2018-08-08 12:37:07+00",5.4,6.4,,76.6,-231,56,32,1013.25,81.2,192
"2018-08-08 12:42:07+00",5.5,6.5,,76.6,-244,51,34,1013.33,81.1,201.9
"2018-08-08 12:47:07+00",7.0,7.0,,76.6,-296,90,12,1013.34,81,210.4
"2018-08-08 12:52:07+00",5.8,6.8,,76.7,-247,77,50,1013.32,81.1,216.3
"2018-08-08 12:57:07+00",6.8,8.8,,76.9,-292,58,10,1013.41,81.2,225.6
"2018-08-08 13:02:07+00",7.0,8.0,,77.1,-303,74,18,1013.41,81.5,234.6
"2018-08-08 13:07:07+00",7.9,8.9,,77.4,-346,83,15,1013.37,81.9,242.4
"2018-08-08 13:12:07+00",7.3,8.3,,77.7,-300,126,22,1013.26,82.1,249.5
"2018-08-08 13:17:07+00",6.8,7.8,,78.1,-295,84,29,1013.28,82.6,256.8
"2018-08-08 13:22:07+00",5.3,6.3,,78.4,-227,40,35,1013.2,83.1,263.7
"2018-08-08 13:27:07+00",4.3,4.3,,78.7,-191,22,9,1013.15,83.9,272.2
"2018-08-08 13:32:07+00",3.7,4.7,,79,-157,44,4,1013.19,85,279.7
"2018-08-08 13:37:07+00",1.5,2.5,,79.5,-84,-5,16,1013.23,85.8,283.3
"2018-08-08 13:42:07+00",1.2,2.2,,80.1,-52,-37,8,1013.17,86.4,294.3
"2018-08-08 13:47:07+00",6.0,9.0,,79.4,78,-235,21,1013.21,84.4,281.5
"2018-08-08 13:52:07+00",5.2,7.2,,79.2,-42,-211,5,1013.35,83.2,313
"2018-08-08 13:57:07+00",4.2,5.2,,78.6,-32,-176,-10,1013.38,82.3,324.6
"2018-08-08 14:02:07+00",7.1,9.1,,78.6,70,-294,-13,1013.31,81.8,324.8
"2018-08-08 14:07:07+00",6.5,7.5,,78.5,59,-276,-13,1013.3,81.2,330.2
"2018-08-08 14:12:07+00",6.2,9.2,,78,79,-241,14,1013.38,80.5,337.6
"2018-08-08 14:17:07+00",6.1,7.1,,78,73,-257,-16,1013.41,80.4,347.2
"2018-08-08 14:22:07+00",5.3,6.3,,78.5,57,-217,-1,1013.38,80.7,357.1
"2018-08-08 14:27:07+00",6.6,7.6,,78.8,98,-264,-14,1013.34,81.3,365.2
"2018-08-08 14:32:07+00",5.8,6.8,,79.2,88,-234,8,1013.46,81.7,374.4
"2018-08-08 14:37:07+00",6.8,7.8,,79.6,114,-263,-5,1013.43,82.1,377.9
"2018-08-08 14:42:07+00",5.4,6.4,,79.9,70,-206,12,1013.37,82.3,382.9
"2018-08-08 14:47:07+00",6.9,7.9,,80.5,62,-283,-14,1013.34,82.7,397.1
"2018-08-08 14:52:07+00",6.5,7.5,,80,57,-269,-13,1013.3,82.5,400.7
"2018-08-08 14:57:07+00",6.2,7.2,,80.1,30,-263,-6,1013.32,82.4,408.8
"2018-08-08 15:02:07+00",5.1,6.1,,80.3,18,-211,-16,1013.26,82.4,414.7
"2018-08-08 15:07:07+00",4.2,5.2,,80.8,26,-167,14,1013.25,83.2,418.3
"2018-08-08 15:12:07+00",2.0,3.0,,81.5,-4,-70,55,1013.16,84.1,428.4
"2018-08-08 15:17:07+00",5.0,7.0,,82.2,28,-193,27,1013.17,85.1,436.5
"2018-08-08 15:22:07+00",7.2,8.2,,82,124,-281,23,1013.16,85.2,432.3
"2018-08-08 15:27:07+00",4.9,5.9,,81.6,56,-173,36,1013.13,84.6,436.8
"2018-08-08 15:32:07+00",7.2,9.2,,81.4,90,-297,-17,1013.11,84.3,440.5
"2018-08-08 15:37:07+00",6.5,8.5,,81.6,60,-276,29,1013.11,84.2,447.7
"2018-08-08 15:42:07+00",7.3,8.3,,81,126,-282,-13,1013.06,83.9,451.5
"2018-08-08 15:47:07+00",7.6,8.6,,81.2,174,-273,17,1013.05,84.1,454.2
"2018-08-08 15:52:07+00",6.5,7.5,,81.6,88,-252,1,1012.93,84.5,458.9
"2018-08-08 15:57:07+00",6.8,7.8,,82.3,112,-264,3,1012.94,85.1,461.1
"2018-08-08 16:02:07+00",8.2,10.2,,82.5,126,-325,5,1012.94,85.3,465.9
"2018-08-08 16:07:07+00",5.9,6.9,,82.5,69,-228,6,1012.8,85.1,465.9
"2018-08-08 16:12:07+00",8.9,9.9,,82.5,128,-356,-7,1012.76,85.4,471.4
"2018-08-08 16:17:07+00",9.0,11.0,,82.2,133,-363,9,1012.68,84.9,474.3
"2018-08-08 16:22:07+00",9.8,11.8,,81.6,125,-393,-16,1012.64,84.5,478.2
"2018-08-08 16:27:07+00",11.5,12.5,,80.8,152,-467,-27,1012.59,83.7,479.5
"2018-08-08 16:32:07+00",9.9,11.9,,81.1,94,-398,14,1012.64,83.9,483.2
"2018-08-08 16:37:07+00",10.9,12.9,,81.3,57,-459,-22,1012.54,84,485.9
"2018-08-08 16:42:07+00",10.0,13.0,,81.7,69,-415,12,1012.54,84.3,488.9
"2018-08-08 16:47:07+00",11.7,12.7,,80.9,144,-483,-24,1012.45,83.8,487.7
"2018-08-08 16:52:07+00",10.1,12.1,,81,121,-421,11,1012.42,83.7,490
"2018-08-08 16:57:07+00",11.7,12.7,,80.6,216,-455,-21,1012.31,83.2,465.3
"2018-08-08 17:02:07+00",11.9,12.9,,80.9,156,-485,-4,1012.28,83.3,491
"2018-08-08 17:07:07+00",13.0,14.0,,81.2,161,-534,-31,1012.22,83.7,496.9
"2018-08-08 17:12:07+00",12.4,14.4,,81.3,99,-519,-20,1012.19,83.8,502
"2018-08-08 17:17:07+00",11.9,13.9,,81.1,154,-483,-14,1012.14,83.9,502.4
"2018-08-08 17:22:07+00",12.5,14.5,,81.2,183,-513,-59,1012.04,83.8,502.7
"2018-08-08 17:27:07+00",10.7,12.7,,80.9,169,-417,-1,1012.06,83.7,496.2
"2018-08-08 17:32:07+00",11.9,13.9,,80.6,150,-493,-7,1011.94,83.4,496.4
"2018-08-08 17:37:07+00",11.8,14.8,,81.1,153,-483,11,1012.01,83.7,498.1
"2018-08-08 17:42:07+00",13.0,16.0,,80.9,122,-533,-13,1011.86,83.6,497
"2018-08-08 17:47:07+00",14.3,16.3,,81.2,132,-599,-40,1011.8,83.7,496.9
"2018-08-08 17:52:07+00",13.5,16.5,,81.5,110,-559,-26,1011.8,84.1,500
"2018-08-08 17:57:07+00",13.6,15.6,,81.9,96,-576,-33,1011.75,84.4,495.3
"2018-08-08 18:02:07+00",14.7,16.7,,81.6,153,-614,-28,1011.65,84.2,489.9
"2018-08-08 18:07:07+00",14.2,17.2,,81.3,160,-614,-54,1011.59,83.8,488.2
"2018-08-08 18:12:07+00",11.6,13.6,,81.5,64,-501,-22,1011.6,83.7,481
"2018-08-08 18:17:07+00",13.1,18.1,,81.4,101,-556,6,1011.59,83.8,480.2
"2018-08-08 18:22:07+00",14.0,17.0,,81.2,132,-589,-15,1011.46,83.8,476
"2018-08-08 18:27:07+00",14.3,18.3,,81.9,33,-602,-49,1011.38,84,473.9
"2018-08-08 18:32:07+00",13.1,18.1,,82.3,22,-561,-41,1011.33,84.1,471.3
"2018-08-08 18:37:07+00",13.8,15.8,,82.5,38,-608,-19,1011.35,84.2,465
"2018-08-08 18:42:07+00",11.7,16.7,,82.8,67,-498,15,1011.34,84.7,452.7
"2018-08-08 18:47:07+00",13.9,16.9,,82.6,102,-602,-50,1011.25,84.6,435
"2018-08-08 18:52:07+00",14.8,18.8,,82.3,56,-626,-20,1011.28,84.2,441.4
"2018-08-08 18:57:07+00",12.0,16.0,,82.6,20,-511,-20,1011.33,84.1,426.9
"2018-08-08 19:02:07+00",14.0,19.0,,83,-9,-591,-54,1011.28,84.5,417.2
"2018-08-08 19:07:07+00",12.9,16.9,,83.3,-51,-533,-14,1011.32,84.8,414.7
"2018-08-08 19:12:07+00",12.6,19.6,,83.3,-43,-537,-14,1011.27,84.8,400
"2018-08-08 19:17:07+00",13.6,18.6,,83.5,-37,-573,-32,1011.21,85,404.3
"2018-08-08 19:22:07+00",12.2,17.2,,83.3,-37,-512,-10,1011.1,84.6,403.5
"2018-08-08 19:27:07+00",12.7,15.7,,83.3,-30,-541,-16,1011.05,84.9,385.6
"2018-08-08 19:32:07+00",12.9,15.9,,83.3,-32,-531,-26,1010.96,84.8,384.2
"2018-08-08 19:37:07+00",13.9,16.9,,83.2,-20,-589,-28,1010.9,84.8,375.7
"2018-08-08 19:42:07+00",9.8,12.8,,83.5,-67,-425,-26,1010.78,85,356.6
"2018-08-08 19:47:07+00",11.9,14.9,,83.7,-25,-509,-49,1010.75,85,357.2
"2018-08-08 19:52:07+00",12.4,15.4,,83.2,37,-528,-50,1010.68,84.7,328.6
"2018-08-08 19:57:07+00",10.9,14.9,,82.6,68,-458,-9,1010.69,84.6,318.1
"2018-08-08 20:02:07+00",12.7,15.7,,81.8,102,-511,-6,1010.56,84.1,321.3
"2018-08-08 20:07:07+00",9.8,13.8,,83.2,-27,-418,13,1010.67,84.6,278.6
"2018-08-08 20:12:07+00",11.4,17.4,,83.6,-58,-485,-7,1010.52,85,315.6
"2018-08-08 20:17:07+00",11.0,15.0,,84.2,-81,-459,-20,1010.55,85.5,315.9
"2018-08-08 20:22:07+00",10.9,13.9,,84.4,-66,-470,-28,1010.57,85.7,300.2
"2018-08-08 20:27:07+00",12.5,16.5,,84,-63,-528,-16,1010.55,85.5,295.9
"2018-08-08 20:32:07+00",11.9,14.9,,83.7,-69,-495,-17,1010.57,85.2,284.3
"2018-08-08 20:37:07+00",11.3,15.3,,83.6,-58,-486,-20,1010.56,85.2,278.5
"2018-08-08 20:42:07+00",13.4,17.4,,83.2,-55,-571,-31,1010.51,84.6,271.6
"2018-08-08 20:47:07+00",11.6,16.6,,82.8,-71,-480,-5,1010.52,84.3,256.9
"2018-08-08 20:52:07+00",11.7,14.7,,83,-131,-484,10,1010.39,84.4,254.1
"2018-08-08 20:57:07+00",9.6,13.6,,83.3,-94,-413,23,1010.25,84.7,246.5
"2018-08-08 21:02:07+00",13.0,15.0,,83.4,-130,-551,-4,1010.17,84.8,240.9
"2018-08-08 21:07:07+00",13.4,17.4,,83.4,-138,-559,-14,1010.24,84.8,234.7
"2018-08-08 21:12:07+00",11.6,14.6,,83.3,-136,-476,4,1010.3,84.7,227.8
"2018-08-08 21:17:07+00",11.3,15.3,,83.1,-132,-475,-3,1010.33,84.6,218.9
"2018-08-08 21:22:07+00",10.2,12.2,,83.3,-121,-417,-2,1010.32,84.7,211.6
"2018-08-08 21:27:07+00",9.9,13.9,,83.3,-116,-416,8,1010.23,84.7,200.2
"2018-08-08 21:32:07+00",13.9,17.9,,83.4,-171,-575,-11,1010.17,84.8,194.6
"2018-08-08 21:37:07+00",11.6,14.6,,83.4,-142,-480,-15,1010.1,84.7,186.2
"2018-08-08 21:42:07+00",12.3,15.3,,83.3,-169,-503,2,1010.04,84.6,178.3
"2018-08-08 21:47:07+00",13.2,15.2,,83.2,-173,-545,3,1009.99,84.5,172.4
"2018-08-08 21:52:07+00",12.5,16.5,,83.1,-131,-514,5,1009.91,84.3,164.6
"2018-08-08 21:57:07+00",12.3,17.3,,83.1,-189,-521,-45,1009.88,84.4,154.4
"2018-08-08 22:02:07+00",13.0,18.0,,82.8,-141,-548,-28,1009.8,84.1,144.9
"2018-08-08 22:07:07+00",8.8,11.8,,82.5,-42,-371,-6,1009.67,83.7,135.2
"2018-08-08 22:12:07+00",7.9,9.9,,81.9,-77,-322,24,1009.59,83.1,127.2
"2018-08-08 22:17:07+00",11.7,13.7,,81.9,-184,-470,-3,1009.65,83,115.8
"2018-08-08 22:22:07+00",13.7,16.7,,81.8,-211,-549,-7,1009.62,82.8,106.4
"2018-08-08 22:27:07+00",13.8,15.8,,81.3,-215,-561,-9,1009.8,82.2,95.4
"2018-08-08 22:32:07+00",13.5,17.5,,81,-234,-535,-3,1009.74,81.8,87.9
"2018-08-08 22:37:07+00",14.1,17.1,,80.8,-257,-559,-35,1009.74,81.5,80.4
"2018-08-08 22:42:07+00",13.5,15.5,,80.7,-205,-538,-15,1009.88,81.2,58.9
"2018-08-08 22:47:07+00",12.1,15.1,,80.6,-210,-481,-41,1009.87,81.1,57.9
"2018-08-08 22:52:07+00",13.3,15.3,,80.9,-248,-531,-41,1009.86,81.1,52.2
"2018-08-08 22:57:07+00",15.5,17.5,,81.3,-262,-625,-38,1009.85,81.2,39.1
"2018-08-08 23:02:07+00",15.4,17.4,,81.3,-265,-603,-15,1009.95,81.2,32.7
"2018-08-08 23:07:07+00",13.0,15.0,,80.9,-242,-510,3,1009.89,81,19.7
"2018-08-08 23:12:07+00",12.7,14.7,,80.5,-218,-502,-2,1009.83,80.7,18.8
"2018-08-08 23:17:07+00",13.9,14.9,,80.2,-251,-541,-6,1009.93,80.3,10.5
"2018-08-08 23:22:07+00",14.4,16.4,,80,-247,-568,-7,1009.92,80,5.2
"2018-08-08 23:27:07+00",13.0,15.0,,79.7,-217,-521,-14,1009.99,79.7,1.3
"2018-08-08 23:32:07+00",12.5,13.5,,79.7,-223,-491,-10,1009.94,79.5,0
"2018-08-08 23:37:07+00",12.0,13.0,,79.7,-237,-463,-11,1009.98,79.3,0
"2018-08-08 23:42:07+00",13.4,15.4,,80.1,-266,-516,-14,1009.95,79.5,0
"2018-08-08 23:47:07+00",12.6,13.6,,80,-295,-479,-2,1009.99,79.5,0
"2018-08-08 23:52:07+00",12.9,14.9,,79.6,-385,-444,6,1010.02,79.3,0
"2018-08-08 23:57:07+00",12.9,13.9,,79.4,-405,-417,13,1010.02,79.2,0
